Weather History for Springfield, IL

Change the Weather History Date:

Wednesday, April 9, 2014

  Actual Average Record
Temperature  
Mean Temperature 50 °F 51 °F  
Max Temperature 65 °F 62 °F 87 °F (2001)
Min Temperature 35 °F 40 °F 19 °F (1997)
Degree Days  
Heating Degree Days 15 14  
Month to date heating degree days 136 141  
Since 1 July heating degree days 5938 5123  
Cooling Degree Days 0 0  
Month to date cooling degree days 0 0  
Year to date cooling degree days 0 2  
Moisture  
Dew Point 31 °F    
Average Humidity 53    
Maximum Humidity 82    
Minimum Humidity 24    
Precipitation  
Precipitation 0.00 in 0.11 in 1.21 in (1891)
Month to date precipitation 2.11 0.94  
Year to date precipitation 9.33 7.20  
Snow  
Snow 0.00 in 0.00 in 1.60 in (1961)
Month to date snowfall 0.0 0.2  
Since 1 July snowfall 45.6 20.8  
Snow Depth 0.00 in    
Sea Level Pressure  
Sea Level Pressure 30.01 in    
Wind  
Wind Speed 11 mph (WSW)    
Max Wind Speed 21 mph    
Max Gust Speed 28 mph    
Visibility 10 miles    
Events      
T = Trace of Precipitation, MM = Missing Value Source: NWS Daily Summary

Daily Weather History Graph

Daily Weather History Graph

Search for Another Location

Airport:

Trip Planner

Search our weather history database for the weather conditions in past years. The results will help you decide how hot, cold, wet, or windy it might be!

Date:

Astronomy

Apr. 09, 2014 Rise Set
Actual Time 6:30 AM CDT 7:31 PM CDT
Civil Twilight 6:02 AM CDT 7:58 PM CDT
Nautical Twilight 5:29 AM CDT 8:31 PM CDT
Astronomical Twilight 4:55 AM CDT 9:05 PM CDT
Moon 2:19 PM CDT (4/9) 3:18 AM CDT (4/9)
Length of Visible Light 13h 56m
Length of Day
13h 00m
Waxing Gibbous, 72% of the Moon is Illuminated
Apr 9
Waxing Gibbous
Apr 15
Full
Apr 22
Last Quarter
Apr 29
New
May 6
First Quarter

Hourly Weather History & Observations

Time (CDT) Temp. Windchill Dew Point Humidity Pressure Visibility Wind Dir Wind Speed Gust Speed Precip Events Conditions
12:52 AM 46.0 °F 41.4 °F 30.9 °F 56% 29.99 in 10.0 mi WNW 9.2 mph - N/A   Clear
1:52 AM 45.0 °F 39.7 °F 33.1 °F 63% 30.00 in 10.0 mi WNW 10.4 mph - N/A   Clear
2:52 AM 44.1 °F 39.0 °F 33.1 °F 65% 30.00 in 10.0 mi WNW 9.2 mph - N/A   Clear
3:52 AM 43.0 °F 38.2 °F 33.1 °F 68% 30.00 in 10.0 mi WNW 8.1 mph - N/A   Clear
4:52 AM 41.0 °F 35.8 °F 33.1 °F 73% 30.02 in 10.0 mi WNW 8.1 mph - N/A   Clear
5:52 AM 37.9 °F 33.5 °F 30.9 °F 76% 30.04 in 10.0 mi WNW 5.8 mph - N/A   Clear
6:52 AM 35.1 °F 30.1 °F 30.0 °F 82% 30.06 in 10.0 mi West 5.8 mph - N/A   Clear
7:52 AM 41.0 °F 37.1 °F 34.0 °F 76% 30.08 in 10.0 mi WSW 5.8 mph - N/A   Clear
8:52 AM 48.9 °F - 35.1 °F 59% 30.09 in 10.0 mi WNW 9.2 mph - N/A   Clear
9:52 AM 52.0 °F - 35.1 °F 53% 30.11 in 10.0 mi West 6.9 mph - N/A   Clear
10:52 AM 55.9 °F - 33.1 °F 42% 30.10 in 10.0 mi WSW 9.2 mph - N/A   Clear
11:52 AM 57.9 °F - 30.0 °F 35% 30.08 in 10.0 mi West 11.5 mph 19.6 mph N/A   Clear
12:52 PM 60.8 °F - 26.6 °F 27% 30.07 in 10.0 mi West 8.1 mph 20.7 mph N/A   Clear
1:52 PM 62.1 °F - 26.1 °F 25% 30.05 in 10.0 mi WSW 12.7 mph 17.3 mph N/A   Clear
2:52 PM 63.0 °F - 27.0 °F 26% 30.03 in 10.0 mi WSW 10.4 mph 27.6 mph N/A   Clear
3:52 PM 64.9 °F - 26.1 °F 23% 30.01 in 10.0 mi WSW 12.7 mph 19.6 mph N/A   Clear
4:52 PM 64.9 °F - 26.1 °F 23% 29.99 in 10.0 mi SSW 16.1 mph - N/A   Clear
5:52 PM 64.0 °F - 28.0 °F 26% 29.96 in 10.0 mi SSW 12.7 mph - N/A   Clear
6:52 PM 62.1 °F - 28.9 °F 29% 29.94 in 10.0 mi South 15.0 mph - N/A   Clear
7:52 PM 59.0 °F - 30.9 °F 35% 29.94 in 10.0 mi South 12.7 mph - N/A   Clear
8:52 PM 57.9 °F - 32.0 °F 37% 29.94 in 10.0 mi South 13.8 mph - N/A   Clear
9:52 PM 57.0 °F - 32.0 °F 39% 29.95 in 10.0 mi South 12.7 mph - N/A   Clear
10:52 PM 55.0 °F - 34.0 °F 45% 29.93 in 10.0 mi South 16.1 mph - N/A   Clear
11:52 PM 55.0 °F - 34.0 °F 45% 29.91 in 10.0 mi South 15.0 mph - N/A   Clear